{"data":{"norad_id":66996,"epoch":"2026-05-25T04:50:12.387264Z","epoch_age_seconds":58363,"freshness":"FRESH","line1":"1 66996U 25292D   26145.20153226  .00003178  00000+0  22247-3 0  9993","line2":"2 66996  97.6321 221.1052 0016145  82.2412 278.0648 15.05874153 24982","mean_motion":15.05874153,"eccentricity":0.0016145,"inclination_deg":97.6321,"raan_deg":221.1052,"arg_perigee_deg":82.2412,"mean_anomaly_deg":278.0648,"bstar":0.00022247,"rev_number":2498,"period_min":95.625520707108,"perigee_km":537.64009421892,"apogee_km":560.00725022953,"semimajor_km":6926.9606722242,"source":"CELESTRAK","updated_at":"2026-05-25T13:38:06.638434Z"}}